BAW965 EDDH-EGLL

Flight info

Callsign BAW965
Flight time 1h 12m
Altitude 36000
Route WSN5G/33 WSN N125 ITMIZ DCT ABNED L980 LOGAN
Aircraft A21N/M-SDE2E3FGHIRWXY/LB1

Departure

Time 2026-05-06 18:38
Airport Hamburg Helmut Schmidt Airport (EDDH)

Arrival

Time 2026-05-06 19:50
Airport London Heathrow Airport (EGLL)
Time Latitude Longitude Altitude Speed Heading
2026-05-06 17:55 53.63415 10.00352 51 ft 0 kts 85°
2026-05-06 18:22 53.63414 10.00347 54 ft 3 kts 85°
2026-05-06 18:22 53.63412 10.00303 49 ft 4 kts 86°
2026-05-06 18:23 53.63411 10.00267 52 ft 4 kts 99°
2026-05-06 18:23 53.63421 10.00230 52 ft 4 kts 144°
2026-05-06 18:23 53.63435 10.00220 48 ft 0 kts 175°
2026-05-06 18:26 53.63433 10.00220 48 ft 2 kts 175°
2026-05-06 18:27 53.63409 10.00223 51 ft 5 kts 176°
2026-05-06 18:27 53.63359 10.00229 52 ft 9 kts 176°
2026-05-06 18:27 53.63283 10.00236 50 ft 13 kts 176°
2026-05-06 18:27 53.63190 10.00249 54 ft 2 kts 185°
2026-05-06 18:28 53.63171 10.00234 54 ft 4 kts 207°
2026-05-06 18:28 53.63136 10.00204 54 ft 7 kts 206°
2026-05-06 18:28 53.63078 10.00189 54 ft 10 kts 195°
2026-05-06 18:28 53.63009 10.00121 54 ft 13 kts 214°
2026-05-06 18:29 53.62931 10.00028 54 ft 15 kts 238°
2026-05-06 18:29 53.62896 9.99913 53 ft 0 kts 243°
2026-05-06 18:30 53.62894 9.99908 53 ft 2 kts 243°
2026-05-06 18:31 53.62885 9.99876 51 ft 4 kts 243°
2026-05-06 18:31 53.62867 9.99815 51 ft 7 kts 247°
2026-05-06 18:31 53.62887 9.99727 50 ft 10 kts 326°
2026-05-06 18:31 53.62908 9.99709 50 ft 0 kts 337°
2026-05-06 18:37 53.63043 9.99590 51 ft 55 kts 332°
2026-05-06 18:37 53.63585 9.99125 53 ft 117 kts 333°
2026-05-06 18:37 53.64468 9.98364 57 ft 166 kts 334°
2026-05-06 18:37 53.65529 9.97443 447 ft 176 kts 335°
2026-05-06 18:38 53.66637 9.96456 1120 ft 182 kts 336°
2026-05-06 18:38 53.67749 9.95468 1919 ft 180 kts 339°
2026-05-06 18:38 53.68904 9.94520 2553 ft 190 kts 339°
2026-05-06 18:38 53.70118 9.93456 3149 ft 204 kts 333°
2026-05-06 18:39 53.71150 9.91669 3736 ft 224 kts 305°
2026-05-06 18:39 53.71538 9.89053 4263 ft 246 kts 267°
2026-05-06 18:39 53.71096 9.86137 4676 ft 268 kts 250°
2026-05-06 18:40 53.69731 9.80088 6203 ft 280 kts 251°
2026-05-06 18:40 53.69071 9.76988 7059 ft 281 kts 251°
2026-05-06 18:40 53.68426 9.73863 7899 ft 284 kts 253°
2026-05-06 18:40 53.67788 9.70702 8740 ft 286 kts 252°
2026-05-06 18:41 53.67148 9.67500 9579 ft 290 kts 253°
2026-05-06 18:41 53.66503 9.64244 10252 ft 299 kts 253°
2026-05-06 18:41 53.65824 9.60812 10609 ft 319 kts 252°
2026-05-06 18:41 53.64946 9.57276 11014 ft 336 kts 240°
2026-05-06 18:42 53.63622 9.53978 11682 ft 342 kts 234°
2026-05-06 18:42 53.62213 9.50746 12497 ft 344 kts 233°
2026-05-06 18:42 53.60793 9.47488 13331 ft 346 kts 234°
2026-05-06 18:42 53.59377 9.44219 14081 ft 348 kts 234°
2026-05-06 18:43 53.57950 9.40915 14796 ft 349 kts 234°
2026-05-06 18:43 53.56539 9.37641 15524 ft 350 kts 234°
2026-05-06 18:43 53.55084 9.34275 16233 ft 353 kts 234°
2026-05-06 18:43 53.53651 9.30952 16847 ft 358 kts 234°
2026-05-06 18:44 53.52181 9.27548 17472 ft 362 kts 234°
2026-05-06 18:44 53.50696 9.24121 18132 ft 364 kts 234°
2026-05-06 18:44 53.49199 9.20668 18694 ft 367 kts 234°
2026-05-06 18:44 53.47688 9.17189 19241 ft 370 kts 234°
2026-05-06 18:45 53.46164 9.13685 19781 ft 373 kts 234°
2026-05-06 18:45 53.44627 9.10153 20314 ft 376 kts 234°
2026-05-06 18:45 53.43082 9.06613 20829 ft 378 kts 234°
2026-05-06 18:45 53.41522 9.03040 21332 ft 381 kts 234°
2026-05-06 18:46 53.39952 8.99449 21833 ft 384 kts 234°
2026-05-06 18:46 53.38367 8.95822 22298 ft 387 kts 234°
2026-05-06 18:46 53.36771 8.92173 22740 ft 390 kts 234°
2026-05-06 18:46 53.35197 8.88460 23176 ft 392 kts 239°
2026-05-06 18:47 53.33984 8.84372 23552 ft 394 kts 249°
2026-05-06 18:47 53.33023 8.80077 23898 ft 395 kts 250°
2026-05-06 18:47 53.32088 8.75737 24252 ft 397 kts 250°
2026-05-06 18:47 53.31145 8.71393 24605 ft 398 kts 250°
2026-05-06 18:48 53.30186 8.67029 24944 ft 400 kts 250°
2026-05-06 18:48 53.29225 8.62670 25253 ft 401 kts 250°
2026-05-06 18:48 53.28266 8.58278 25555 ft 403 kts 250°
2026-05-06 18:48 53.27305 8.53880 25847 ft 404 kts 250°
2026-05-06 18:49 53.26357 8.49446 26134 ft 406 kts 251°
2026-05-06 18:49 53.25495 8.44940 26408 ft 408 kts 252°
2026-05-06 18:49 53.24647 8.40423 26682 ft 409 kts 252°
2026-05-06 18:49 53.23793 8.35881 26947 ft 411 kts 252°
2026-05-06 18:50 53.22931 8.31326 27207 ft 412 kts 252°
2026-05-06 18:50 53.22066 8.26752 27459 ft 414 kts 252°
2026-05-06 18:50 53.21197 8.22170 27695 ft 415 kts 252°
2026-05-06 18:50 53.20321 8.17574 27967 ft 416 kts 251°
2026-05-06 18:51 53.19444 8.12978 28265 ft 416 kts 251°
2026-05-06 18:51 53.18568 8.08376 28527 ft 416 kts 251°
2026-05-06 18:51 53.17702 8.03766 28762 ft 417 kts 251°
2026-05-06 18:51 53.16833 7.99147 28983 ft 419 kts 251°
2026-05-06 18:52 53.15956 7.94505 29200 ft 420 kts 251°
2026-05-06 18:52 53.15076 7.89861 29411 ft 421 kts 251°
2026-05-06 18:52 53.14192 7.85212 29623 ft 423 kts 251°
2026-05-06 18:52 53.13300 7.80535 29840 ft 424 kts 251°
2026-05-06 18:53 53.12405 7.75855 30036 ft 425 kts 251°
2026-05-06 18:53 53.11506 7.71159 30217 ft 426 kts 251°
2026-05-06 18:53 53.10586 7.66472 30386 ft 427 kts 249°
2026-05-06 18:53 53.09478 7.61884 30567 ft 427 kts 246°
2026-05-06 18:54 53.08318 7.57329 30735 ft 428 kts 245°
2026-05-06 18:54 53.07146 7.52774 30907 ft 429 kts 245°
2026-05-06 18:54 53.05976 7.48206 31057 ft 430 kts 246°
2026-05-06 18:54 53.04802 7.43621 31205 ft 431 kts 246°
2026-05-06 18:55 53.03627 7.39040 31367 ft 432 kts 246°
2026-05-06 18:55 53.02448 7.34449 31536 ft 432 kts 246°
2026-05-06 18:55 53.01268 7.29858 31692 ft 432 kts 246°
2026-05-06 18:55 53.00088 7.25274 31834 ft 432 kts 246°
2026-05-06 18:56 52.98903 7.20688 32004 ft 432 kts 245°
2026-05-06 18:56 52.97717 7.16104 32186 ft 432 kts 246°
2026-05-06 18:56 52.96531 7.11527 32365 ft 432 kts 245°
2026-05-06 18:56 52.95343 7.06959 32554 ft 431 kts 246°
2026-05-06 18:57 52.94157 7.02401 32728 ft 430 kts 246°
2026-05-06 18:57 52.92967 6.97845 32888 ft 430 kts 246°
2026-05-06 18:57 52.91776 6.93302 33051 ft 430 kts 246°
2026-05-06 18:57 52.90589 6.88771 33207 ft 429 kts 246°
2026-05-06 18:58 52.89399 6.84233 33347 ft 429 kts 246°
2026-05-06 18:58 52.88224 6.79767 33514 ft 429 kts 246°
2026-05-06 18:58 52.87032 6.75248 33642 ft 428 kts 246°
2026-05-06 18:58 52.85826 6.70674 33769 ft 428 kts 246°
2026-05-06 18:59 52.84634 6.66166 33899 ft 428 kts 246°
2026-05-06 18:59 52.83455 6.61725 34003 ft 427 kts 246°
2026-05-06 18:59 52.82261 6.57225 34084 ft 427 kts 246°
2026-05-06 19:00 52.79864 6.48231 34240 ft 428 kts 246°
2026-05-06 19:00 52.77460 6.39240 34403 ft 428 kts 246°
2026-05-06 19:01 52.75046 6.30253 34572 ft 428 kts 246°
2026-05-06 19:01 52.72627 6.21272 34716 ft 428 kts 245°
2026-05-06 19:02 52.70195 6.12303 34852 ft 428 kts 245°
2026-05-06 19:02 52.67760 6.03342 34992 ft 428 kts 245°
2026-05-06 19:03 52.65320 5.94391 35145 ft 428 kts 246°
2026-05-06 19:03 52.62875 5.85461 35293 ft 427 kts 246°
2026-05-06 19:04 52.60425 5.76551 35356 ft 428 kts 245°
2026-05-06 19:04 52.57962 5.67627 35440 ft 429 kts 245°
2026-05-06 19:05 52.55491 5.58706 35545 ft 429 kts 245°
2026-05-06 19:05 52.53012 5.49787 35648 ft 429 kts 245°
2026-05-06 19:06 52.50525 5.40873 35760 ft 429 kts 245°
2026-05-06 19:06 52.48033 5.31984 35852 ft 429 kts 245°
2026-05-06 19:07 52.45538 5.23109 35935 ft 429 kts 245°
2026-05-06 19:07 52.43027 5.14219 35940 ft 431 kts 245°
2026-05-06 19:08 52.40502 5.05310 35932 ft 432 kts 245°
2026-05-06 19:08 52.37979 4.96434 35934 ft 433 kts 245°
2026-05-06 19:09 52.35439 4.87545 35938 ft 430 kts 245°
2026-05-06 19:09 52.32894 4.78676 35934 ft 431 kts 245°
2026-05-06 19:10 52.30342 4.69806 35938 ft 430 kts 245°
2026-05-06 19:10 52.27787 4.60961 35930 ft 431 kts 245°
2026-05-06 19:11 52.25224 4.52118 35931 ft 431 kts 245°
2026-05-06 19:11 52.22653 4.43279 35932 ft 431 kts 245°
2026-05-06 19:12 52.20077 4.34455 35936 ft 431 kts 245°
2026-05-06 19:12 52.17485 4.25613 35940 ft 434 kts 245°
2026-05-06 19:13 52.14871 4.16725 35941 ft 435 kts 244°
2026-05-06 19:13 52.12259 4.07886 35950 ft 433 kts 244°
2026-05-06 19:14 52.09632 3.99036 35948 ft 435 kts 244°
2026-05-06 19:14 52.06999 3.90181 35959 ft 432 kts 245°
2026-05-06 19:15 52.04401 3.81473 35955 ft 427 kts 245°
2026-05-06 19:15 52.01802 3.72806 35954 ft 425 kts 245°
2026-05-06 19:16 51.99205 3.64174 35958 ft 427 kts 245°
2026-05-06 19:16 51.96590 3.55509 35956 ft 429 kts 244°
2026-05-06 19:17 51.94405 3.48293 35952 ft 426 kts 244°
2026-05-06 19:17 51.91803 3.39731 35956 ft 424 kts 244°
2026-05-06 19:18 51.89181 3.31131 35962 ft 426 kts 244°
2026-05-06 19:18 51.86545 3.22520 35958 ft 428 kts 244°
2026-05-06 19:19 51.84645 3.13476 35953 ft 425 kts 262°
2026-05-06 19:19 51.84019 3.03966 35957 ft 423 kts 264°
2026-05-06 19:20 51.83435 2.94477 35960 ft 425 kts 264°
2026-05-06 19:20 51.82808 2.84964 35870 ft 421 kts 264°
2026-05-06 19:20 51.82492 2.80239 35601 ft 423 kts 264°
2026-05-06 19:21 51.82175 2.75505 35365 ft 424 kts 264°
2026-05-06 19:21 51.81857 2.70779 35123 ft 423 kts 264°
2026-05-06 19:21 51.81535 2.66061 34882 ft 420 kts 264°
2026-05-06 19:21 51.81213 2.61381 34640 ft 418 kts 264°
2026-05-06 19:22 51.80892 2.56732 34399 ft 416 kts 264°
2026-05-06 19:22 51.80570 2.52102 34168 ft 414 kts 264°
2026-05-06 19:22 51.80247 2.47479 33923 ft 412 kts 264°
2026-05-06 19:22 51.79925 2.42899 33643 ft 409 kts 264°
2026-05-06 19:23 51.79606 2.38397 33360 ft 407 kts 263°
2026-05-06 19:23 51.79284 2.33870 32971 ft 403 kts 263°
2026-05-06 19:23 51.78966 2.29411 32523 ft 397 kts 263°
2026-05-06 19:23 51.78650 2.25022 32033 ft 391 kts 263°
2026-05-06 19:24 51.78359 2.20673 31532 ft 387 kts 265°
2026-05-06 19:24 51.78106 2.16380 31071 ft 382 kts 265°
2026-05-06 19:24 51.77858 2.12140 30624 ft 377 kts 265°
2026-05-06 19:24 51.77613 2.07952 30184 ft 372 kts 265°
2026-05-06 19:25 51.77369 2.03810 29697 ft 368 kts 264°
2026-05-06 19:25 51.77126 1.99729 29211 ft 363 kts 264°
2026-05-06 19:25 51.76883 1.95694 28737 ft 359 kts 264°
2026-05-06 19:25 51.76639 1.91631 28315 ft 364 kts 264°
2026-05-06 19:26 51.76395 1.87600 27878 ft 359 kts 264°
2026-05-06 19:26 51.76153 1.83624 27448 ft 353 kts 264°
2026-05-06 19:26 51.75911 1.79703 27002 ft 349 kts 264°
2026-05-06 19:26 51.75671 1.75827 26569 ft 345 kts 264°
2026-05-06 19:27 51.75435 1.72003 26152 ft 340 kts 264°
2026-05-06 19:27 51.75199 1.68223 25739 ft 337 kts 264°
2026-05-06 19:27 51.74964 1.64473 25334 ft 335 kts 264°
2026-05-06 19:27 51.74728 1.60741 24948 ft 333 kts 264°
2026-05-06 19:28 51.74493 1.57027 24336 ft 334 kts 264°
2026-05-06 19:28 51.74252 1.53260 23542 ft 341 kts 264°
2026-05-06 19:28 51.74004 1.49417 22545 ft 349 kts 264°
2026-05-06 19:28 51.73749 1.45474 21555 ft 356 kts 264°
2026-05-06 19:29 51.73490 1.41491 20864 ft 356 kts 264°
2026-05-06 19:29 51.73233 1.37559 20388 ft 349 kts 264°
2026-05-06 19:29 51.72978 1.33704 19978 ft 341 kts 264°
2026-05-06 19:29 51.72730 1.29949 19596 ft 333 kts 264°
2026-05-06 19:30 51.72487 1.26269 19224 ft 327 kts 264°
2026-05-06 19:30 51.72247 1.22640 18848 ft 324 kts 264°
2026-05-06 19:30 51.72007 1.19044 18484 ft 321 kts 264°
2026-05-06 19:30 51.71769 1.15483 18107 ft 318 kts 264°
2026-05-06 19:31 51.71531 1.11950 17719 ft 315 kts 264°
2026-05-06 19:31 51.71295 1.08456 17350 ft 312 kts 264°
2026-05-06 19:31 51.70828 1.01577 16628 ft 306 kts 264°
2026-05-06 19:32 51.70596 0.98190 16290 ft 302 kts 264°
2026-05-06 19:32 51.70365 0.94830 15970 ft 300 kts 265°
2026-05-06 19:32 51.70136 0.91498 15608 ft 299 kts 265°
2026-05-06 19:32 51.69906 0.88175 15186 ft 299 kts 265°
2026-05-06 19:33 51.69673 0.84842 14752 ft 300 kts 265°
2026-05-06 19:33 51.69438 0.81489 14312 ft 301 kts 265°
2026-05-06 19:33 51.69205 0.78172 13873 ft 303 kts 265°
2026-05-06 19:33 51.68965 0.74797 13400 ft 304 kts 265°
2026-05-06 19:34 51.68725 0.71412 12927 ft 305 kts 265°
2026-05-06 19:34 51.68483 0.68015 12464 ft 305 kts 265°
2026-05-06 19:34 51.68240 0.64614 12006 ft 306 kts 264°
2026-05-06 19:34 51.67994 0.61207 11561 ft 306 kts 264°
2026-05-06 19:35 51.67748 0.57795 11121 ft 307 kts 264°
2026-05-06 19:35 51.67502 0.54379 10673 ft 306 kts 264°
2026-05-06 19:35 51.67259 0.51007 10352 ft 298 kts 264°
2026-05-06 19:35 51.67023 0.47755 10150 ft 286 kts 265°
2026-05-06 19:36 51.66794 0.44593 9699 ft 284 kts 265°
2026-05-06 19:36 51.66564 0.41447 9234 ft 282 kts 264°
2026-05-06 19:36 51.66333 0.38305 8719 ft 282 kts 264°
2026-05-06 19:36 51.66101 0.35172 8261 ft 281 kts 264°
2026-05-06 19:37 51.65870 0.32057 7797 ft 280 kts 263°
2026-05-06 19:37 51.65639 0.28950 7340 ft 280 kts 263°
2026-05-06 19:37 51.65407 0.25865 7054 ft 273 kts 263°
2026-05-06 19:37 51.65186 0.22909 6989 ft 258 kts 263°
2026-05-06 19:38 51.64979 0.20117 6983 ft 248 kts 262°
2026-05-06 19:38 51.64774 0.17359 7000 ft 248 kts 262°
2026-05-06 19:38 51.64568 0.14603 7008 ft 248 kts 263°
2026-05-06 19:38 51.64410 0.11846 7023 ft 248 kts 264°
2026-05-06 19:39 51.64265 0.09077 7025 ft 248 kts 265°
2026-05-06 19:39 51.64110 0.06163 7051 ft 274 kts 264°
2026-05-06 19:39 51.63943 0.03097 7048 ft 276 kts 264°
2026-05-06 19:39 51.63772 0.00014 7024 ft 276 kts 264°
2026-05-06 19:40 51.63603 -0.03041 7047 ft 272 kts 266°
2026-05-06 19:40 51.63436 -0.06064 7051 ft 271 kts 266°
2026-05-06 19:40 51.63268 -0.09090 7050 ft 272 kts 266°
2026-05-06 19:40 51.63098 -0.12116 7049 ft 272 kts 266°
2026-05-06 19:41 51.62928 -0.15155 7049 ft 281 kts 266°
2026-05-06 19:41 51.62742 -0.18455 7081 ft 303 kts 266°
2026-05-06 19:41 51.62551 -0.21834 7080 ft 304 kts 266°
2026-05-06 19:41 51.62359 -0.25216 7074 ft 304 kts 266°
2026-05-06 19:42 51.62164 -0.28603 7070 ft 303 kts 266°
2026-05-06 19:42 51.61970 -0.31985 7062 ft 304 kts 265°
2026-05-06 19:42 51.61773 -0.35374 7035 ft 304 kts 266°
2026-05-06 19:42 51.61577 -0.38760 7032 ft 304 kts 265°
2026-05-06 19:43 51.61378 -0.42138 7033 ft 303 kts 266°
2026-05-06 19:43 51.61179 -0.45517 7028 ft 304 kts 266°
2026-05-06 19:43 51.60981 -0.48900 7026 ft 304 kts 265°
2026-05-06 19:43 51.60779 -0.52279 7026 ft 304 kts 265°
2026-05-06 19:44 51.60576 -0.55662 7023 ft 304 kts 265°
2026-05-06 19:44 51.60374 -0.58989 7024 ft 291 kts 266°
2026-05-06 19:44 51.60182 -0.62134 7015 ft 275 kts 265°
2026-05-06 19:44 51.59854 -0.65070 6948 ft 262 kts 251°
2026-05-06 19:45 51.58946 -0.67525 6761 ft 251 kts 228°
2026-05-06 19:45 51.57613 -0.69201 6457 ft 239 kts 207°
2026-05-06 19:45 51.56116 -0.69939 6253 ft 218 kts 187°
2026-05-06 19:45 51.54640 -0.69864 5944 ft 205 kts 173°
2026-05-06 19:46 51.53240 -0.69549 5481 ft 203 kts 172°
2026-05-06 19:46 51.51876 -0.69272 5040 ft 192 kts 173°
2026-05-06 19:46 51.50617 -0.69035 4379 ft 179 kts 173°
2026-05-06 19:46 51.49353 -0.68800 3633 ft 182 kts 172°
2026-05-06 19:47 51.48175 -0.68043 2923 ft 190 kts 143°
2026-05-06 19:47 51.47528 -0.66251 2327 ft 188 kts 97°
2026-05-06 19:47 51.47578 -0.64339 2059 ft 159 kts 81°
2026-05-06 19:47 51.47666 -0.62667 1849 ft 139 kts 83°
2026-05-06 19:48 51.47700 -0.61149 1683 ft 137 kts 85°
2026-05-06 19:48 51.47711 -0.59609 1501 ft 136 kts 85°
2026-05-06 19:48 51.47718 -0.58112 1326 ft 136 kts 86°
2026-05-06 19:48 51.47723 -0.56597 1141 ft 136 kts 86°
2026-05-06 19:49 51.47729 -0.55066 948 ft 136 kts 86°
2026-05-06 19:49 51.47734 -0.53591 763 ft 133 kts 86°
2026-05-06 19:49 51.47739 -0.52089 584 ft 133 kts 87°
2026-05-06 19:49 51.47742 -0.50638 389 ft 131 kts 86°
2026-05-06 19:50 51.47750 -0.49173 206 ft 132 kts 88°
2026-05-06 19:50 51.47751 -0.47727 93 ft 124 kts 87°
2026-05-06 19:50 51.47759 -0.46601 97 ft 72 kts 88°
2026-05-06 19:50 51.47753 -0.46208 94 ft 15 kts 115°
2026-05-06 19:51 51.47666 -0.46102 93 ft 17 kts 143°
2026-05-06 19:51 51.47555 -0.46088 93 ft 19 kts 199°
2026-05-06 19:51 51.47519 -0.46277 91 ft 21 kts 265°
2026-05-06 19:51 51.47518 -0.46522 91 ft 23 kts 270°
2026-05-06 19:52 51.47496 -0.46787 92 ft 25 kts 259°
2026-05-06 19:52 51.47493 -0.47016 92 ft 21 kts 268°
2026-05-06 19:52 51.47492 -0.47261 91 ft 23 kts 267°
2026-05-06 19:52 51.47490 -0.47529 92 ft 25 kts 270°
2026-05-06 19:53 51.47491 -0.47787 91 ft 11 kts 272°
2026-05-06 19:53 51.47443 -0.47875 93 ft 14 kts 179°
2026-05-06 19:53 51.47340 -0.47872 91 ft 16 kts 180°
2026-05-06 19:53 51.47299 -0.47876 91 ft 7 kts 198°
2026-05-06 19:54 51.47289 -0.47959 91 ft 9 kts 275°
2026-05-06 19:54 51.47290 -0.48002 91 ft 0 kts 273°